timestamp,surface_pressure_avg,surface_temp_avg,battery_voltage,lat,long
2019-12-26 00:09:01+00:00,381.4947,3.33,12.57,47.84626,-54.09684
2019-12-26 00:19:01+00:00,378.9562,3.4,12.57,47.84626,-54.09684
2019-12-26 00:29:01+00:00,372.5696,3.4,12.57,47.84626,-54.09684
2019-12-26 00:39:01+00:00,366.3796,3.4,12.57,47.84626,-54.09684
2019-12-26 00:49:01+00:00,364.6329,3.39,12.57,47.84626,-54.09684
2019-12-26 00:59:01+00:00,361.1413,3.4,12.57,47.84626,-54.09684
2019-12-26 01:09:01+00:00,356.4346,3.4,12.57,47.84626,-54.09684
2019-12-26 01:19:01+00:00,355.6996,3.3,12.57,47.84626,-54.09684
2019-12-26 01:29:01+00:00,351.8079,3.1,12.57,47.84626,-54.09684
2019-12-26 01:39:01+00:00,345.3763,3.09,12.57,47.84626,-54.09684
2019-12-26 01:49:01+00:00,338.9246,3.1,12.57,47.84626,-54.09684
2019-12-26 01:59:01+00:00,329.9012,3.05,12.57,47.84626,-54.09684
2019-12-26 02:09:01+00:00,321.213,3.0,12.57,47.84626,-54.09684
2019-12-26 02:19:01+00:00,312.0096,3.06,12.57,47.84626,-54.09684
2019-12-26 02:29:01+00:00,299.968,3.1,12.57,47.84626,-54.09684
2019-12-26 02:39:01+00:00,285.8964,3.1,12.57,47.84626,-54.09684
2019-12-26 02:49:01+00:00,275.4597,3.1,12.57,47.84626,-54.09684
2019-12-26 02:59:01+00:00,268.5981,3.1,12.57,47.84626,-54.09684
2019-12-26 03:09:01+00:00,261.1614,3.14,12.57,47.84626,-54.09684
2019-12-26 03:19:01+00:00,252.4281,3.2,12.57,47.84626,-54.09684
2019-12-26 03:29:01+00:00,244.6464,3.1,12.57,47.84626,-54.09684
2019-12-26 03:39:01+00:00,237.6281,3.1,12.57,47.84626,-54.09684
2019-12-26 03:49:01+00:00,230.3364,3.1,12.57,47.84626,-54.09684
2019-12-26 03:59:01+00:00,225.8548,3.26,12.57,47.84626,-54.09684
2019-12-26 04:09:01+00:00,225.4748,3.3,12.57,47.84626,-54.09684
2019-12-26 04:19:01+00:00,223.5015,3.29,12.49,47.84626,-54.09684
2019-12-26 04:29:01+00:00,221.4265,3.1,12.49,47.84626,-54.09684
2019-12-26 04:39:01+00:00,223.1214,3.1,12.49,47.84626,-54.09684
2019-12-26 04:49:01+00:00,222.9631,3.04,12.49,47.84626,-54.09684
2019-12-26 04:59:01+00:00,220.7714,3.0,12.49,47.84626,-54.09684
2019-12-26 05:09:01+00:00,221.8531,3.0,12.49,47.84626,-54.09684
2019-12-26 05:19:01+00:00,226.4164,3.07,12.49,47.84626,-54.09684
2019-12-26 05:29:01+00:00,229.5514,3.0,12.49,47.84626,-54.09684
2019-12-26 05:39:01+00:00,232.4297,3.02,12.49,47.84626,-54.09684
2019-12-26 05:49:01+00:00,237.2014,3.1,12.49,47.84626,-54.09684
2019-12-26 05:59:01+00:00,238.243,3.1,12.49,47.84626,-54.09684
2019-12-26 06:09:01+00:00,239.1631,3.1,12.49,47.84626,-54.09684
2019-12-26 06:19:01+00:00,243.0531,3.1,12.49,47.84626,-54.09684
2019-12-26 06:29:01+00:00,248.7831,3.04,12.49,47.84626,-54.09684
2019-12-26 06:39:01+00:00,250.2547,3.1,12.49,47.84626,-54.09684
2019-12-26 06:49:01+00:00,250.4031,3.1,12.49,47.84626,-54.09684
2019-12-26 06:59:01+00:00,256.1131,3.1,12.49,47.84626,-54.09684
2019-12-26 07:09:01+00:00,262.9764,3.13,12.49,47.84626,-54.09684
2019-12-26 07:19:01+00:00,266.6014,3.1,12.49,47.84626,-54.09684
2019-12-26 07:29:01+00:00,270.698,3.1,12.49,47.84626,-54.09684
2019-12-26 07:39:01+00:00,279.6115,3.0,12.49,47.84626,-54.09684
2019-12-26 07:49:01+00:00,283.8164,3.0,12.49,47.84626,-54.09684
2019-12-26 07:59:01+00:00,287.0164,2.9,12.49,47.84626,-54.09684
2019-12-26 08:09:01+00:00,295.1813,2.94,12.49,47.84626,-54.09684
2019-12-26 08:19:01+00:00,304.2463,2.97,12.49,47.84626,-54.09684
2019-12-26 08:29:01+00:00,307.1081,2.9,12.49,47.84626,-54.09684
2019-12-26 08:39:01+00:00,311.053,2.9,12.49,47.84626,-54.09684
2019-12-26 08:49:01+00:00,317.993,2.9,12.49,47.84626,-54.09684
2019-12-26 08:59:01+00:00,322.3813,2.9,12.49,47.84626,-54.09684
2019-12-26 09:09:01+00:00,328.0079,2.9,12.49,47.84626,-54.09684
2019-12-26 09:19:01+00:00,337.5295,2.96,12.49,47.84626,-54.09684
2019-12-26 09:29:01+00:00,343.7846,2.9,12.49,47.84626,-54.09684
2019-12-26 09:39:01+00:00,350.098,2.9,12.49,47.84626,-54.09684
2019-12-26 09:49:01+00:00,359.2313,2.98,12.49,47.84626,-54.09684
2019-12-26 09:59:01+00:00,369.3895,3.0,12.49,47.84626,-54.09684
2019-12-26 10:09:01+00:00,377.7278,3.0,12.49,47.84626,-54.09684
2019-12-26 10:19:01+00:00,386.2796,3.0,12.49,47.84626,-54.09684
2019-12-26 10:29:01+00:00,397.3146,3.09,12.49,47.84626,-54.09684
2019-12-26 10:39:01+00:00,401.9496,3.0,12.49,47.84626,-54.09684
2019-12-26 10:49:01+00:00,404.3162,2.9,12.49,47.84626,-54.09684
2019-12-26 10:59:01+00:00,410.8029,2.9,12.49,47.84626,-54.09684
2019-12-26 11:09:01+00:00,415.6313,2.9,12.49,47.84626,-54.09684
2019-12-26 11:19:01+00:00,415.7362,2.9,12.49,47.84626,-54.09684
2019-12-26 11:29:01+00:00,416.9913,2.8,12.49,47.84626,-54.09684
2019-12-26 11:39:01+00:00,418.6329,2.8,12.49,47.84626,-54.09684
2019-12-26 11:49:01+00:00,416.8312,2.76,12.49,47.84626,-54.09684
2019-12-26 11:59:01+00:00,416.1613,2.7,12.49,47.84626,-54.09684
2019-12-26 12:09:01+00:00,416.0912,2.7,12.49,47.84626,-54.09684
2019-12-26 12:19:01+00:00,412.9344,2.69,12.49,47.84626,-54.09684
2019-12-26 12:29:01+00:00,407.2079,2.69,12.49,47.84626,-54.09684
2019-12-26 12:39:01+00:00,404.048,2.7,12.49,47.84626,-54.09684
2019-12-26 12:49:01+00:00,401.5562,2.7,12.49,47.84626,-54.09684
2019-12-26 12:59:01+00:00,393.5496,2.6,12.49,47.84626,-54.09684
2019-12-26 13:09:01+00:00,386.5978,2.6,12.49,47.84626,-54.09684
2019-12-26 13:19:01+00:00,386.1896,2.64,12.49,47.84626,-54.09684
2019-12-26 13:29:01+00:00,381.4512,2.65,12.49,47.84626,-54.09684
2019-12-26 13:39:01+00:00,372.3279,2.6,12.49,47.84626,-54.09684
2019-12-26 13:49:01+00:00,368.2346,2.6,12.49,47.84626,-54.09684
2019-12-26 13:59:01+00:00,367.2662,2.6,12.49,47.84626,-54.09684
2019-12-26 14:09:01+00:00,357.538,2.6,12.49,47.84626,-54.09684
2019-12-26 14:19:01+00:00,347.8481,2.67,12.65,47.84626,-54.09684
2019-12-26 14:29:01+00:00,343.3196,2.7,12.65,47.84626,-54.09684
2019-12-26 14:39:01+00:00,333.4396,2.69,12.65,47.84626,-54.09684
2019-12-26 14:49:01+00:00,318.7113,2.62,12.65,47.84626,-54.09684
2019-12-26 14:59:01+00:00,309.5547,2.67,12.65,47.84626,-54.09684
2019-12-26 15:09:01+00:00,302.1347,2.7,12.65,47.84626,-54.09684
2019-12-26 15:19:01+00:00,291.0947,2.69,12.97,47.84626,-54.09684
2019-12-26 15:29:01+00:00,279.2931,2.7,12.97,47.84626,-54.09684
2019-12-26 15:39:01+00:00,269.5097,2.62,12.97,47.84626,-54.09684
2019-12-26 15:49:01+00:00,261.2498,2.66,12.97,47.84626,-54.09684
2019-12-26 15:59:01+00:00,252.0648,2.69,12.97,47.84626,-54.09684
2019-12-26 16:09:01+00:00,243.2415,2.69,12.97,47.84626,-54.09684
2019-12-26 16:19:01+00:00,238.1998,2.7,12.89,47.84626,-54.09684
2019-12-26 16:29:01+00:00,232.4147,2.7,12.89,47.84626,-54.09684
2019-12-26 16:39:01+00:00,225.2815,2.7,12.89,47.84626,-54.09684
2019-12-26 16:49:01+00:00,221.1331,2.7,12.89,47.84626,-54.09684
2019-12-26 16:59:01+00:00,218.7364,2.7,12.89,47.84626,-54.09684
2019-12-26 17:09:01+00:00,213.5914,2.7,12.89,47.84626,-54.09684
2019-12-26 17:19:01+00:00,208.8498,2.7,12.81,47.84626,-54.09684
2019-12-26 17:29:01+00:00,206.1731,2.7,12.81,47.84626,-54.09684
2019-12-26 17:39:01+00:00,203.9064,2.7,12.81,47.84626,-54.09684
2019-12-26 17:49:01+00:00,202.2431,2.67,12.81,47.84626,-54.09684
2019-12-26 17:59:01+00:00,205.3231,2.66,12.81,47.84626,-54.09684
2019-12-26 18:09:01+00:00,206.0781,2.69,12.81,47.84626,-54.09684
2019-12-26 18:19:01+00:00,205.3848,2.7,12.73,47.84626,-54.09684
2019-12-26 18:29:01+00:00,208.9564,2.7,12.73,47.84626,-54.09684
2019-12-26 18:39:01+00:00,211.0731,2.7,12.73,47.84626,-54.09684
2019-12-26 18:49:01+00:00,209.1831,2.7,12.73,47.84626,-54.09684
2019-12-26 18:59:01+00:00,207.6781,2.7,12.73,47.84626,-54.09684
2019-12-26 19:09:01+00:00,209.9948,2.7,12.73,47.84626,-54.09684
2019-12-26 19:19:01+00:00,210.5114,2.75,12.65,47.84626,-54.09684
2019-12-26 19:29:01+00:00,211.7848,2.73,12.65,47.84626,-54.09684
2019-12-26 19:39:01+00:00,214.6765,2.75,12.65,47.84626,-54.09684
2019-12-26 19:49:01+00:00,217.5481,2.79,12.65,47.84626,-54.09684
2019-12-26 19:59:01+00:00,220.2548,2.79,12.65,47.84626,-54.09684
2019-12-26 20:09:01+00:00,223.5748,2.75,12.65,47.84626,-54.09684
2019-12-26 20:19:01+00:00,228.7148,2.7,12.57,47.84626,-54.09684
2019-12-26 20:29:01+00:00,233.0298,2.7,12.57,47.84626,-54.09684
2019-12-26 20:39:01+00:00,236.1681,2.7,12.57,47.84626,-54.09684
2019-12-26 20:49:01+00:00,241.1181,2.7,12.57,47.84626,-54.09684
2019-12-26 20:59:01+00:00,247.1431,2.7,12.57,47.84626,-54.09684
2019-12-26 21:09:01+00:00,254.1798,2.7,12.57,47.84626,-54.09684
2019-12-26 21:19:01+00:00,261.9081,2.7,12.49,47.84626,-54.09684
2019-12-26 21:29:01+00:00,270.5147,2.7,12.49,47.84626,-54.09684
2019-12-26 21:39:01+00:00,279.8531,2.68,12.49,47.84626,-54.09684
2019-12-26 21:49:01+00:00,289.848,2.7,12.49,47.84626,-54.09684
2019-12-26 21:59:01+00:00,297.7114,2.69,12.49,47.84626,-54.09684
2019-12-26 22:09:01+00:00,306.7014,2.7,12.49,47.84626,-54.09684
2019-12-26 22:19:01+00:00,314.7546,2.7,12.49,47.84626,-54.09684
2019-12-26 22:29:01+00:00,320.5763,2.69,12.49,47.84626,-54.09684
2019-12-26 22:39:01+00:00,325.1046,2.7,12.49,47.84626,-54.09684
2019-12-26 22:49:01+00:00,334.0212,2.7,12.49,47.84626,-54.09684
2019-12-26 22:59:01+00:00,341.2062,2.7,12.49,47.84626,-54.09684
2019-12-26 23:09:01+00:00,343.1996,2.7,12.49,47.84626,-54.09684
2019-12-26 23:19:01+00:00,345.2162,2.68,12.49,47.84626,-54.09684
2019-12-26 23:29:01+00:00,349.0413,2.7,12.49,47.84626,-54.09684
2019-12-26 23:39:01+00:00,349.7713,2.7,12.49,47.84626,-54.09684
2019-12-26 23:49:01+00:00,345.8079,2.7,12.49,47.84626,-54.09684
2019-12-26 23:59:01+00:00,346.12300000000016,2.7,12.49,47.84626,-54.09684
